Weather in Anyksciai

Lithuania     55°31′42″N   25°05′48″E
temp.,
°C
wind,
m/s
gust,
m/s
humid.,
%
clouds,
%
prec.,
mm/h
press.,
hPa
HPBL,
m
7 august, sun
sun700:00+11w3489100 0.0 102165
03:00+9wnw34900 0.0 102268
06:00+9wnw22900 0.0 102218
09:00+14wsw22790 0.0 1023255
12:00+19w23590 0.0 10231367
15:00+19w3358100 0.0 10221341
18:00+18wnw247179 0.0 1023430
21:00+15wsw2280100 0.0 102214
8 august, mon
mon800:00+12w228887 0.0 102327
03:00+11wnw228777 0.0 102421
06:00+10w228996 0.0 102423
09:00+15w237645 0.0 1025324
12:00+18w23618 0.0 10241119
15:00+20w335562 0.0 10241638
18:00+17w3582100 0.3 1024250
21:00+15w228882 0.3 102413
9 august, tue
tue900:00+13wnw119151 0.0 102510
03:00+13nnw119173 0.0 102517
06:00+13nnw229088 0.0 102630
09:00+16n228011 0.0 1026318
12:00+19nnw226720 0.3 10261012
15:00+20n22684 3.8 1025979
18:00+21nnw226365 1.3 1025696
21:00+15n22834 2.1 102519
10 august, wed
wed1000:00+13nne23895 0.0 102628
03:00+12nne22902 0.0 102612
06:00+11ne11895 0.0 102610
09:00+16n227824 0.0 1027217
12:00+21nnw11595 0.0 1027865
15:00+22wsw2251100 0.0 10261915
18:00+21wnw3469100 0.0 1026247
21:00+17nw227795 0.1 102511
11 august, thu
thu1100:00+15s0083100 0.0 102611
03:00+13ssw118746 0.0 102611
06:00+13ssw228992 0.0 102611
09:00+18sw22772 0.0 1027241
12:00+21sw22625 0.0 1026941
15:00+23sw335510 0.0 10251469
18:00+23wsw23635 0.0 10251402
21:00+18w117798 0.0 102511